This demonstration page uses our WeatherBlox Daily Observations layout. Learn more.

Left ArrowRight Arrow

Hourly Observations for December 23, 2018

Temp ( °F °C ) Dew Point ( °F °C ) Humidity (%) Winds ( mph kmh ) Pressure ( in mb ) Visibility ( mi km ) Precip ( " mm )
12:57 am 00:57 Clear 28 -2.2 21 -6.1 75 75 W 6 9 30.29 1026 10 16 0.00 0.00
1:57 am 01:57 Mostly Cloudy 27 -2.8 20 -6.7 75 75 W 6 9 30.29 1026 10 16 0.00 0.00
2:57 am 02:57 Clear 24 -4.4 19 -7.2 81 81 W 6 9 30.30 1026 10 16 0.00 0.00
3:57 am 03:57 Clear 24 -4.4 18 -7.8 77 77 W 7 11 30.30 1026 10 16 0.00 0.00
4:57 am 04:57 Clear 26 -3.3 18 -7.8 71 71 WNW 8 13 30.29 1026 10 16 0.00 0.00
5:57 am 05:57 Clear 24 -4.4 18 -7.8 77 77 W 7 11 30.30 1026 10 16 0.00 0.00
6:57 am 06:57 Clear 25 -3.9 18 -7.8 75 75 W 8 13 30.30 1026 10 16 0.00 0.00
7:57 am 07:57 Clear 25 -3.9 18 -7.8 75 75 W 7 11 30.29 1026 10 16 0.00 0.00
8:57 am 08:57 Sunny 27 -2.8 19 -7.2 72 72 W 10 17 30.30 1026 10 16 0.00 0.00
9:57 am 09:57 Sunny 31 -0.6 21 -6.1 67 67 WNW 14 22 30.30 1026 10 16 0.00 0.00
10:57 am 10:57 Sunny 37 2.8 20 -6.7 50 50 W 14 22 30.29 1026 10 16 0.00 0.00
11:57 am 11:57 Sunny 39 3.9 20 -6.7 46 46 W 14 22 30.26 1025 10 16 0.00 0.00
12:57 pm 12:57 Sunny 40 4.4 21 -6.1 47 47 W 12 19 30.23 1024 10 16 0.00 0.00
1:57 pm 13:57 Sunny 43 6.1 19 -7.2 38 38 W 12 19 30.20 1023 10 16 0.00 0.00
2:57 pm 14:57 Sunny 44 6.7 19 -7.2 37 37 W 7 11 30.20 1023 10 16 0.00 0.00
3:57 pm 15:57 Sunny 44 6.7 18 -7.8 35 35 SW 12 19 30.20 1023 10 16 0.00 0.00
4:57 pm 16:57 Sunny 39 3.9 23 -5 53 53 SW 9 15 30.21 1023 10 16 0.00 0.00
5:57 pm 17:57 Clear 32 0 24 -4.4 73 73 SSW 6 9 30.22 1023 10 16 0.00 0.00
6:57 pm 18:57 Clear 33 0.6 24 -4.4 70 70 SW 5 7 30.21 1023 10 16 0.00 0.00
7:57 pm 19:57 Clear 29 -1.7 24 -4.4 82 82 WSW 7 11 30.20 1023 10 16 0.00 0.00
8:57 pm 20:57 Clear 27 -2.8 24 -4.4 89 89 SSW 7 11 30.20 1023 10 16 0.00 0.00
9:57 pm 21:57 Clear 28 -2.2 24 -4.4 85 85 SW 7 11 30.20 1023 10 16 0.00 0.00
10:57 pm 22:57 Clear 28 -2.2 24 -4.4 85 85 WSW 5 7 30.18 1022 10 16 0.00 0.00
11:57 pm 23:57 Clear 28 -2.2 24 -4.4 85 85 SW 3 6 30.16 1022 10 16 0.00 0.00

Powered by AerisWeather